Weather History for Andrews AFB, MD

Change the Weather History Date:

Thursday, February 28, 2013

  Actual Average Record
Temperature  
Mean Temperature 42 °F -  
Max Temperature 46 °F 48 °F 73 °F (2011)
Min Temperature 39 °F 29 °F 10 °F (2014)
Degree Days  
Heating Degree Days 22    
Moisture  
Dew Point 29 °F    
Average Humidity 60    
Maximum Humidity 78    
Minimum Humidity 39    
Precipitation  
Precipitation 0.02 in - - ()
Sea Level Pressure  
Sea Level Pressure 29.67 in    
Wind  
Wind Speed 9 mph (WNW)    
Max Wind Speed 18 mph    
Max Gust Speed 26 mph    
Visibility 10 miles    
Events Rain    
Averages and records for this station are not official NWS values.
T = Trace of Precipitation, MM = Missing Value Source: NWS Daily Summary

Daily Weather History Graph

Daily Weather History Graph

Search for Another Location

Airport:

Trip Planner

Search our weather history database for the weather conditions in past years. The results will help you decide how hot, cold, wet, or windy it might be!

Date:

Astronomy

Feb. 28, 2013 Rise Set
Actual Time 6:40 AM EST 5:59 PM EST
Civil Twilight 6:14 AM EST 6:26 PM EST
Nautical Twilight 5:43 AM EST 6:57 PM EST
Astronomical Twilight 5:12 AM EST 7:27 PM EST
Moon 9:21 PM EST (2/28) 7:51 AM EST (2/28)
Length of Visible Light 12h 12m
Length of Day
11h 18m
Waning Gibbous, 91% of the Moon is Illuminated
Feb 28
Waning Gibbous
Mar 4
Last Quarter
Mar 11
New
Mar 19
First Quarter
Mar 27
Full

Hourly Weather History & Observations

Time (EST) Temp. Windchill Dew Point Humidity Pressure Visibility Wind Dir Wind Speed Gust Speed Precip Events Conditions
12:55 AM 43.2 °F 41.5 °F 34.5 °F 72% 29.66 in 10.0 mi South 3.5 mph - N/A   Mostly Cloudy
1:24 AM 42.8 °F - 35.6 °F 76% 29.65 in 10.0 mi Calm Calm - N/A   Partly Cloudy
1:55 AM 44.8 °F 41.6 °F 34.2 °F 66% 29.65 in 10.0 mi West 5.8 mph - 0.00 in   Light Drizzle
2:06 AM 44.6 °F 41.4 °F 35.6 °F 71% 29.65 in 10.0 mi NW 5.8 mph - N/A   Mostly Cloudy
2:55 AM 44.2 °F 39.7 °F 35.6 °F 72% 29.65 in 10.0 mi NNW 8.1 mph - 0.00 in   Overcast
3:55 AM 43.2 °F 35.6 °F 34.9 °F 73% 29.64 in 10.0 mi NNW 16.1 mph - N/A   Overcast
4:55 AM 42.3 °F 37.9 °F 35.8 °F 78% 29.65 in 10.0 mi NNW 6.9 mph - N/A   Mostly Cloudy
4:59 AM 42.8 °F 38.6 °F 35.6 °F 76% 29.65 in 10.0 mi NW 6.9 mph - N/A   Light Drizzle
5:20 AM 41.0 °F 33.9 °F 33.8 °F 76% 29.66 in 10.0 mi NW 12.7 mph - N/A Rain Light Rain
5:55 AM 40.8 °F 32.3 °F 34.2 °F 77% 29.67 in 10.0 mi NNW 17.3 mph - 0.01 in Rain Light Rain
6:24 AM 39.2 °F 33.6 °F 32.0 °F 75% 29.68 in 10.0 mi NW 8.1 mph - N/A Rain Light Rain
6:55 AM 40.1 °F 36.1 °F 29.7 °F 66% 29.68 in 10.0 mi NNW 5.8 mph - 0.01 in   Light Drizzle
6:57 AM 41.0 °F 38.0 °F 30.2 °F 65% 29.68 in 10.0 mi NNW 4.6 mph - N/A   Clear
7:55 AM 40.8 °F 35.0 °F 27.1 °F 58% 29.69 in 10.0 mi NW 9.2 mph - 0.00 in   Scattered Clouds
8:55 AM 43.2 °F 35.9 °F 27.5 °F 54% 29.69 in 10.0 mi WNW 15.0 mph - N/A   Clear
9:55 AM 44.2 °F 38.4 °F 25.2 °F 47% 29.68 in 10.0 mi NW 11.5 mph 18.4 mph N/A   Clear
10:55 AM 44.8 °F 38.3 °F 22.6 °F 42% 29.67 in 10.0 mi WNW 13.8 mph - N/A   Scattered Clouds
11:55 AM 46.6 °F - 22.8 °F 39% 29.67 in 10.0 mi NW 12.7 mph - N/A   Scattered Clouds
12:55 PM 46.0 °F 39.9 °F 23.7 °F 42% 29.65 in 10.0 mi WNW 13.8 mph - N/A   Overcast
1:55 PM 46.6 °F - 26.4 °F 45% 29.65 in 10.0 mi WNW 15.0 mph 20.7 mph N/A   Mostly Cloudy
2:40 PM 42.8 °F 35.1 °F 28.4 °F 57% 29.66 in 10.0 mi NW 16.1 mph 24.2 mph N/A   Light Drizzle
2:53 PM 42.8 °F 34.5 °F 30.2 °F 61% 29.66 in 10.0 mi West 18.4 mph 24.2 mph N/A   Scattered Clouds
2:55 PM 43.5 °F 35.8 °F 28.9 °F 56% 29.66 in 10.0 mi West 17.3 mph 24.2 mph 0.00 in   Scattered Clouds
3:16 PM 44.6 °F 37.8 °F 28.4 °F 53% 29.66 in 10.0 mi NW 15.0 mph 26.5 mph N/A Rain Light Rain
3:26 PM 44.6 °F 38.1 °F 28.4 °F 53% 29.66 in 10.0 mi WNW 13.8 mph 21.9 mph N/A   Scattered Clouds
3:55 PM 45.1 °F 38.8 °F 27.1 °F 49% 29.66 in 10.0 mi West 13.8 mph 21.9 mph 0.00 in   Scattered Clouds
4:55 PM 44.1 °F 38.6 °F 26.6 °F 50% 29.66 in 10.0 mi West 10.4 mph - N/A   Mostly Cloudy
5:55 PM 43.3 °F 37.2 °F 25.9 °F 50% 29.68 in 10.0 mi WNW 11.5 mph - N/A   Overcast
6:55 PM 42.6 °F 35.6 °F 25.3 °F 51% 29.71 in 10.0 mi WNW 13.8 mph - N/A   Overcast
7:55 PM 42.1 °F 34.9 °F 26.1 °F 53% 29.73 in 10.0 mi WNW 13.8 mph - N/A   Overcast
8:55 PM 42.1 °F 34.2 °F 26.1 °F 53% 29.74 in 10.0 mi West 16.1 mph 20.7 mph N/A   Overcast
9:55 PM 41.7 °F 34.1 °F 26.4 °F 55% 29.74 in 10.0 mi West 15.0 mph - N/A   Overcast
10:55 PM 41.5 °F 35.4 °F 27.1 °F 57% 29.73 in 10.0 mi WNW 10.4 mph - N/A   Overcast
11:55 PM 41.4 °F 34.3 °F 28.2 °F 60% 29.73 in 10.0 mi WNW 12.7 mph - N/A   Overcast